Regional Weather Roundup
Issued by NWS

Home | Current Version | Previous Version | Graphics & Text | Print | Product List | Glossary On
Versions: 1 2 3 4 5 6 7 8 9 10 11 12 13 14 15 16 17 18 19 20 21 22 23 24 25 26 27 28 29 30 31 32 33 34 35 36 37 38 39 40 41 42 43 44 45 46 47 48 49 50
000
ASUS43 KMPX 310510
RWRMN
WEATHER ROUNDUP FOR MINNESOTA
NATIONAL WEATHER SERVICE TWIN CITIES/CHANHASSEN MN
1200 AM CDT FRI OCT 31 2014


NOTE: "FAIR" INDICATES FEW OR NO CLOUDS BELOW 12,000 FEET WITH NO
SIGNIFICANT WEATHER AND/OR OBSTRUCTIONS TO VISIBILITY. N/A MEANS
CURRENT SKY AND/OR WEATHER CONDITIONS ARE NOT AVAILABLE.

MNZ060>063-068>070-310600-
   Twin Cities Metro

CITY           SKY/WX    TMP DP  RH WIND       PRES   REMARKS
TWIN CITIES    CLEAR     32  12  43 N18G28    30.37R WCI  20
ST PAUL        FAIR      33  13  43 N22G31    30.38R WCI  21
CRYSTAL        CLEAR     33  12  41 N16G26    30.37R WCI  23
BLAINE         CLEAR     34  16  47 N15G24    30.37R WCI  24
LAKEVILLE      CLEAR     30  12  47 N16G24    30.35R WCI  19
EDEN PRAIRIE   CLEAR     33  14  45 N14G23    30.36R WCI  23
SOUTH ST PAUL  FAIR      33  13  42 N23       30.35R WCI  21
LAKE ELMO      FAIR      32  16  51 N17G26    30.35R WCI  21
$$
MNZ001>005-007-008-013>017-022>024-027-028-310600-
   Northwest Minnesota

CITY           SKY/WX    TMP DP  RH WIND       PRES   REMARKS
BEMIDJI        CLOUDY    29  17  59 N14       30.47R WCI  18
HALLOCK        CLEAR     21  18  86 NW7       30.59R WCI  13
ROSEAU         CLEAR     21  18  86 NW7       30.54S WCI  13
WARROAD        PTCLDY    27  19  74 NW6       30.53R WCI  20
THIEF RVR FALL CLEAR     25  18  74 N9        30.54R WCI  15
CROOKSTON      CLEAR     23  19  86 N9        30.58R WCI  13
FOSSTON        CLEAR     21  18  86 N9        30.52R WCI  11
DETROIT LAKES  CLEAR     27  23  86 N10G18    30.51R WCI  17
MOORHEAD       CLEAR     25  21  86 N9        30.56S WCI  15
PARK RAPIDS    PTCLDY    26  17  68 N9        30.45R WCI  17
MAHNOMEN       FAIR      25  19  79 N10       30.52R WCI  14
$$
MNZ006-009>011-018-025>026-310600-
   North Central Minnesota

CITY           SKY/WX    TMP DP  RH WIND       PRES   REMARKS
BAUDETTE       CLOUDY    29  16  58 NE12      30.50R WCI  19
FLAG ISLAND    PTCLDY    30  19  64 NE15G22   30.52R WCI  19
INTL FALLS     CLOUDY    28  17  63 N16G22    30.46R WCI  16
WASKISH        PTCLDY    27  19  74 CALM      30.49R
BIG FORK       PTCLDY    27  18  69 N9G17     30.44R WCI  17
LONGVILLE      CLEAR     28  18  64 N8G17     30.43R WCI  20
GRAND RAPIDS   MOCLDY    27  16  63 N15       30.40R WCI  15
CRANE LAKE     MOCLDY    27  21  80 N6        30.44R WCI  20
ORR            MOCLDY    27  18  69 N7        30.40R WCI  19
COOK           CLOUDY    27  19  74 N13G20    30.41R WCI  16
WALKER         FAIR      28  16  61 N12G18    30.46R WCI  17
$$
MNZ012-019>021-037-310600-
   Northeast Minnesota

CITY           SKY/WX    TMP DP  RH WIND       PRES   REMARKS
DULUTH         PTCLDY    28  17  63 N21G32    30.31R WCI  15
ELY            CLOUDY    25  19  80 N10G20    30.35R WCI  15
HIBBING        MOCLDY    28  14  55 N16G28    30.39R WCI  16
EVELETH        MOCLDY    28  19  69 N8G18     30.38R WCI  20
DULUTH HARBOR  PTCLDY    34  23  64 N17G28    30.36R WCI  23
TWO HARBORS    PTCLDY    30  21  69 N14G23    30.30R WCI  20
SILVER BAY     PTCLDY    30  19  64 N13G23    30.30R WCI  20
GRAND MARAIS     N/A     31  20  63 NE9G17    30.29R WCI  23
G MARAIS ARPRT PTCLDY    23  16  74 N20G31    30.21R WCI   8
$$
MNZ029>031-032-039>041-046>048-054>057-064-310600-
   West Central Minnesota

CITY           SKY/WX    TMP DP  RH WIND       PRES   REMARKS
FERGUS FALLS   CLEAR     28  18  64 N9        30.53R WCI  20
WHEATON        CLEAR     25  19  80 NW9       30.55R WCI  15
MORRIS         CLEAR     27  21  80 NW9       30.49R WCI  17
ALEXANDRIA     CLEAR     29  17  61 N15       30.47R WCI  18
ELBOW LAKE     FAIR      28  20  75 N10       30.49R WCI  18
WADENA         CLEAR     25  18  74 N9        30.46R WCI  15
GLENWOOD       CLEAR     28  18  64 N13       30.46R WCI  18
APPLETON       CLEAR     30  21  69 N14       30.49R WCI  20
BENSON         CLEAR     27  23  86 N9        30.48R WCI  17
ORTONVILLE     CLEAR     28  19  69 N15       30.51R WCI  17
MADISON        CLEAR     34  25  69 N18       30.49S WCI  23
WILLMAR        FAIR      32  19  59 N13G18    30.47R WCI  22
$$
MNZ033>034-036-042>043-049>051-058-059-310600-
   Central Minnesota

CITY           SKY/WX    TMP DP  RH WIND       PRES   REMARKS
ST CLOUD       CLEAR     31  14  49 N13G21    30.41R WCI  21
SAUK CENTRE    FAIR      29  16  59 N14       30.45R WCI  18
PAYNESVILLE    CLEAR     26  16  65 W8        30.44R WCI  18
AITKIN         MOCLDY    30  19  64 N9G18     30.40R WCI  22
PINE RIVER     CLOUDY    28  19  69 N18       30.46R WCI  16
BRAINERD       CLEAR     28  15  58 N22G29    30.43R WCI  14
STAPLES        CLEAR     25  16  68 N8        30.45R WCI  16
LONG PRAIRIE   FAIR      28  16  59 NW10G17   30.44R WCI  19
LITTLE FALLS   CLEAR     30  14  51 N6G17     30.43R WCI  24
LITCHFIELD     CLEAR     30  21  69 N10       30.43R WCI  21
BUFFALO        CLEAR     32  13  45 N13G23    30.41R WCI  22
MAPLE LAKE     CLEAR     32  17  52 N12       30.41R WCI  23
$$
MNZ037-044-045-052-053-310600-
   East Central Minnesota

CITY           SKY/WX    TMP DP  RH WIND       PRES   REMARKS
PRINCETON      CLEAR     30  16  55 N14       30.40R WCI  20
MORA           CLEAR     30  18  59 N9G17     30.39R WCI  22
CAMBRIDGE      CLEAR     32  18  55 N13G23    30.36R WCI  22
RUSH CITY      CLEAR     30  16  55 N13G23    30.38R WCI  20
MOOSE LAKE     CLEAR     30  18  59 N17G30    30.35R WCI  18
HINCKLEY       FAIR      30  19  64 N12G25    30.36R WCI  21
CLOQUET        CLOUDY    28  16  59 N18G33    30.35R WCI  16
MCGREGOR       PTCLDY    30  19  64 N16G26    30.39R WCI  19
$$
MNZ071>073-080-081-089-090-097-098-310600-
   Southwest Minnesota

CITY           SKY/WX    TMP DP  RH WIND       PRES   REMARKS
MONTEVIDEO     CLEAR     28  23  80 N13       30.49R WCI  18
GRANITE FALLS  CLEAR     30  23  74 NW9       30.48R WCI  22
CANBY          CLEAR     29  23  79 NW12      30.50R WCI  19
MARSHALL       CLEAR     28  19  69 N14       30.45R WCI  17
REDWOOD FALLS  CLEAR     32  19  58 N12G23    30.44R WCI  23
OLIVIA         CLEAR     32  21  64 N10       30.43R WCI  24
PIPESTONE      CLEAR     28  19  69 N12       30.44R WCI  18
WINDOM         CLEAR     30  19  64 N21       30.41R WCI  17
WORTHINGTON    CLEAR     30  21  69 N17       30.42R WCI  18
JACKSON        CLEAR     32  19  59 N14G26    30.39R WCI  22
TRACY          CLEAR     30  23  75 N14       30.45R WCI  19
SLAYTON        CLEAR     28  21  74 N17G23    30.44R WCI  16
$$
MNZ065>067-074>077-082>085-091>093-310600-
   South Central Minnesota

CITY           SKY/WX    TMP DP  RH WIND       PRES   REMARKS
MANKATO        CLEAR    N/A N/A N/A N24G30    30.36R
NEW ULM        CLEAR     30  19  64 N15G23    30.39R WCI  19
ST JAMES       CLEAR     34  19  55 NW15G21   30.41R WCI  24
FAIRMONT       PTCLDY    34  18  51 N22G29    30.36R WCI  22
GLENCOE        CLEAR     32  18  54 N10       30.40R WCI  24
FARIBAULT      CLEAR     34  12  40 NW16G25   30.34R WCI  23
OWATONNA       CLEAR     34  16  47 N17G26    30.32R WCI  23
WASECA         CLEAR     32  12  43 N18G26    30.35R WCI  20
ALBERT LEA     CLOUDY    37  19  48 N21G31    30.30R
$$
MNZ078>079-086>088-094>096-310600-
   Southeast Minnesota

CITY           SKY/WX    TMP DP  RH WIND       PRES   REMARKS
ROCHESTER      MOCLDY    34  17  50 N30G41    30.26R WCI  20
RED WING         N/A     34   9  35 N14G25    30.32R WCI  24
STANTON        CLEAR     33  13  42 N16G26    30.33R WCI  23
DODGE CENTER   PTCLDY    34  18  51 N21G36    30.29R WCI  22
WINONA         CLOUDY    37  28  70 N10G29    30.24R
AUSTIN         CLOUDY    37  21  52 N16G31    30.27R
PRESTON        CLOUDY    37  26  64 N20G32    30.22R
$$
ABBREVIATIONS USED IN REMARKS
   TC - TEMPERATURES IN CELSIUS
  WCI - WIND CHILL INDEX
   HX - HEAT INDEX
  VSB - VISIBILITY
$$



USA.gov is the U.S. government's official web portal to all federal, state and local government web resources and services.